Location: Middelsbur
(53.6609°N, 7.5020°E)
Time: 13:15:45
(UTC+00:00)

Cosmos-2242 - Pass Details

Date: 06 July 2020
Orbit: 592 x 616 km, 82.5° (Epoch: 06 August)

Event Time Altitude Azimuth Distance (km) Brightness Sun altitude
Rises 20:59:20 0° 343° (NNW) 2,872 8.1 -6.7°
Reaches altitude 10° 21:01:39 10° 336° (NNW) 1,967 7.3 -6.9°
Maximum altitude 21:05:42 40° 267° (W) 909 4.2 -7.2°
Drops below altitude 10° 21:09:46 10° 199° (SSW) 1,966 5.3 -7.6°
Enters shadow 21:11:56 - 192° (SSW) 2,815 6.0 -7.8°
